Hayward, WI

5:59 AM CDT on September 24, 2017 (GMT -0500)
Sawyer County

Weather History for KHYR - April, 2013

Change the Weather History Date:

Friday, April 12, 2013

  Actual Average Record
Temperature  
Mean Temperature 30 °F -  
Max Temperature 35 °F 55 °F 75 °F (1998)
Min Temperature 26 °F 27 °F 15 °F (2008)
Degree Days  
Heating Degree Days 35    
Moisture  
Dew Point 24 °F    
Average Humidity 81    
Maximum Humidity 88    
Minimum Humidity 61    
Precipitation  
Precipitation 0.11 in - - ()
Sea Level Pressure  
Sea Level Pressure 29.72 in    
Wind  
Wind Speed 7 mph (NE)    
Max Wind Speed 14 mph    
Max Gust Speed 18 mph    
Visibility 4 miles    
Events Fog , Snow    
Averages and records for this station are not official NWS values.
T = Trace of Precipitation, MM = Missing Value Source: NWS Daily Summary

Daily Weather History Graph

Daily Weather History Graph

Search for Another Location

Airport or City:

Trip Planner

Search our weather history database for the weather conditions in past years. The results will help you decide how hot, cold, wet, or windy it might be!

Date:

Astronomy

Apr. 12, 2013 Rise Set
Actual Time 6:24 AM CDT 7:49 PM CDT
Civil Twilight 5:53 AM CDT 8:20 PM CDT
Nautical Twilight 5:15 AM CDT 8:58 PM CDT
Astronomical Twilight 4:35 AM CDT 9:38 PM CDT
Moon 7:27 AM CDT (4/12) 10:28 PM CDT (4/12)
Length of Visible Light 14h 26m
Length of Day
13h 24m
Waxing Crescent, 5% of the Moon is Illuminated
Apr 12
Waxing Crescent
Apr 18
First Quarter
Apr 25
Full
May 2
Last Quarter
May 9
New

Hourly Weather History & Observations

Time (CDT) Temp. Windchill Dew Point Humidity Pressure Visibility Wind Dir Wind Speed Gust Speed Precip Events Conditions
12:08 AM 26.6 °F 16.8 °F 21.2 °F 80% 29.74 in 6.0 mi NE 10.4 mph - 0.00 in Snow Light Snow
12:38 AM 26.6 °F 19.1 °F 23.0 °F 86% 29.74 in 2.5 mi NE 6.9 mph - 0.00 in Snow Light Snow
12:49 AM 26.6 °F 18.2 °F 23.0 °F 86% 29.73 in 3.0 mi NE 8.1 mph - 0.00 in Snow Light Snow
12:53 AM 27.0 °F 18.7 °F 23.0 °F 85% 29.78 in 3.0 mi NNE 8.1 mph - 0.00 in Snow Light Snow
1:53 AM 28.0 °F 18.6 °F 21.9 °F 78% 29.76 in 7.0 mi NE 10.4 mph - 0.00 in Snow Light Snow
2:53 AM 28.0 °F 20.0 °F 23.0 °F 81% 29.74 in 3.0 mi NNE 8.1 mph - 0.00 in Snow Light Snow
3:25 AM 28.4 °F 22.2 °F 23.0 °F 80% 29.68 in 2.5 mi NE 5.8 mph - 0.01 in Snow Light Snow
3:40 AM 28.4 °F 20.4 °F 24.8 °F 86% 29.68 in 3.0 mi NE 8.1 mph - 0.01 in Snow Light Snow
3:53 AM 28.0 °F 20.8 °F 24.1 °F 85% 29.73 in 5.0 mi NE 6.9 mph - 0.01 in Snow Light Snow
4:39 AM 28.4 °F 21.2 °F 24.8 °F 86% 29.68 in 2.5 mi NE 6.9 mph - 0.00 in Snow Light Snow
4:50 AM 28.4 °F 22.2 °F 24.8 °F 86% 29.68 in 2.0 mi NE 5.8 mph - 0.00 in Snow Light Snow
4:53 AM 28.0 °F 20.8 °F 24.1 °F 85% 29.73 in 2.0 mi Variable 6.9 mph - 0.00 in Snow Light Snow
5:04 AM 28.4 °F 22.2 °F 24.8 °F 86% 29.68 in 3.0 mi NE 5.8 mph - 0.00 in Snow Light Snow
5:20 AM 28.4 °F 21.2 °F 24.8 °F 86% 29.67 in 5.0 mi NE 6.9 mph - 0.00 in Snow Light Snow
5:29 AM 28.4 °F 21.2 °F 24.8 °F 86% 29.67 in 2.5 mi NE 6.9 mph - 0.00 in Snow Light Snow
5:40 AM 28.4 °F 21.2 °F 24.8 °F 86% 29.67 in 1.2 mi NE 6.9 mph - 0.01 in Snow Light Snow
5:47 AM 28.4 °F 21.2 °F 24.8 °F 86% 29.67 in 1.0 mi NE 6.9 mph - 0.01 in Snow Light Snow
5:53 AM 28.9 °F 22.8 °F 25.0 °F 85% 29.72 in 1.2 mi Variable 5.8 mph - 0.01 in Snow Light Snow
5:58 AM 28.4 °F 22.2 °F 24.8 °F 86% 29.67 in 2.0 mi NE 5.8 mph - 0.00 in Snow Light Snow
6:07 AM 28.4 °F 21.2 °F 24.8 °F 86% 29.67 in 4.0 mi NE 6.9 mph - 0.00 in Snow Light Snow
6:17 AM 28.4 °F 19.7 °F 24.8 °F 86% 29.67 in 1.8 mi NE 9.2 mph - 0.01 in Snow Light Snow
6:34 AM 28.4 °F 22.2 °F 24.8 °F 86% 29.67 in 1.0 mi Variable 5.8 mph - 0.01 in Snow Light Snow
6:53 AM 28.0 °F 20.8 °F 25.0 °F 88% 29.72 in 0.5 mi NE 6.9 mph - 0.03 in Fog , Snow Snow
7:45 AM 28.4 °F 20.4 °F 24.8 °F 86% 29.67 in 0.8 mi NE 8.1 mph - 0.03 in Snow Light Snow
7:53 AM 28.9 °F 21.9 °F 25.0 °F 85% 29.72 in 1.0 mi NNE 6.9 mph - 0.03 in Snow Light Snow
8:16 AM 28.4 °F 19.1 °F 24.8 °F 86% 29.67 in 1.2 mi NE 10.4 mph - 0.00 in Snow Light Snow
8:43 AM 30.2 °F 23.4 °F 24.8 °F 80% 29.67 in 2.0 mi Variable 6.9 mph - 0.00 in Snow Light Snow
8:53 AM 30.0 °F 21.1 °F 24.1 °F 79% 29.72 in 2.5 mi NE 10.4 mph 17.3 mph 0.00 in Snow Light Snow
9:04 AM 30.2 °F 21.9 °F 24.8 °F 80% 29.67 in 3.0 mi NE 9.2 mph 18.4 mph 0.00 in Snow Light Snow
9:42 AM 30.2 °F 21.3 °F 24.8 °F 80% 29.67 in 2.5 mi NE 10.4 mph 18.4 mph 0.00 in Snow Light Snow
9:53 AM 30.0 °F 19.5 °F 23.0 °F 75% 29.72 in 6.0 mi ENE 13.8 mph - 0.00 in Snow Light Snow
10:53 AM 30.9 °F 24.3 °F 25.0 °F 79% 29.73 in 1.8 mi NNE 6.9 mph - 0.00 in Snow Light Snow
11:07 AM 30.2 °F 24.3 °F 24.8 °F 80% 29.68 in 1.0 mi NE 5.8 mph - 0.00 in Snow Light Snow
11:25 AM 30.2 °F 22.6 °F 24.8 °F 80% 29.69 in 0.8 mi ENE 8.1 mph - 0.01 in Snow Light Snow
11:37 AM 30.2 °F 24.3 °F 26.6 °F 86% 29.69 in 0.5 mi Variable 5.8 mph - 0.01 in Fog , Snow Light Snow
11:44 AM 30.2 °F 24.3 °F 26.6 °F 86% 29.69 in 0.8 mi NE 5.8 mph - 0.02 in Snow Light Snow
11:53 AM 30.9 °F 26.2 °F 27.0 °F 85% 29.73 in 0.8 mi Variable 4.6 mph - 0.02 in Snow Light Snow
12:03 PM 30.2 °F 23.4 °F 26.6 °F 86% 29.69 in 1.0 mi NNE 6.9 mph - 0.00 in Snow Light Snow
12:33 PM 30.2 °F 23.4 °F 26.6 °F 86% 29.68 in 1.5 mi Variable 6.9 mph - 0.01 in Snow Light Snow
12:53 PM 30.9 °F 25.2 °F 25.0 °F 79% 29.73 in 2.0 mi Variable 5.8 mph - 0.01 in Snow Light Snow
1:03 PM 30.2 °F 24.3 °F 24.8 °F 80% 29.68 in 1.8 mi NNE 5.8 mph - 0.00 in Snow Light Snow
1:06 PM 30.2 °F 24.3 °F 26.6 °F 86% 29.68 in 2.0 mi NE 5.8 mph - 0.00 in Snow Light Snow
1:27 PM 32.0 °F 25.6 °F 26.6 °F 80% 29.68 in 2.5 mi Variable 6.9 mph - 0.00 in Snow Light Snow
1:38 PM 32.0 °F 25.6 °F 26.6 °F 80% 29.68 in 3.0 mi Variable 6.9 mph - 0.00 in Snow Light Snow
1:45 PM 32.0 °F 27.5 °F 24.8 °F 75% 29.68 in 4.0 mi NNE 4.6 mph - 0.00 in Snow Light Snow
1:51 PM 32.0 °F 24.8 °F 26.6 °F 80% 29.69 in 2.0 mi NNE 8.1 mph - 0.00 in Snow Light Snow
1:53 PM 32.0 °F 24.2 °F 26.1 °F 79% 29.74 in 2.0 mi NNE 9.2 mph - 0.00 in Snow Light Snow
2:00 PM 32.0 °F 25.6 °F 24.8 °F 75% 29.69 in 3.0 mi NNE 6.9 mph - 0.00 in Snow Light Snow
2:53 PM 33.1 °F 30.0 °F 25.0 °F 72% 29.74 in 5.0 mi Variable 3.5 mph - 0.00 in Snow Light Snow
3:15 PM 33.8 °F 27.7 °F 24.8 °F 70% 29.70 in 6.0 mi NE 6.9 mph - 0.00 in Snow Light Snow
3:23 PM 33.8 °F 28.6 °F 24.8 °F 70% 29.70 in 8.0 mi Variable 5.8 mph - 0.00 in Snow Light Snow
3:53 PM 34.0 °F 29.8 °F 23.0 °F 64% 29.75 in 10.0 mi Variable 4.6 mph - 0.00 in   Overcast
4:53 PM 34.0 °F 28.8 °F 21.9 °F 61% 29.75 in 10.0 mi NNE 5.8 mph - N/A   Overcast
5:53 PM 32.0 °F 24.8 °F 21.9 °F 66% 29.78 in 10.0 mi NNE 8.1 mph - N/A   Overcast
6:00 PM 32.0 °F 26.4 °F 21.2 °F 64% 29.73 in 10.0 mi Variable 5.8 mph - N/A   Overcast
6:07 PM 30.2 °F 22.6 °F 21.2 °F 69% 29.74 in 10.0 mi NNE 8.1 mph 16.1 mph N/A   Overcast
6:32 PM 30.2 °F 22.6 °F 23.0 °F 75% 29.75 in 2.0 mi NNE 8.1 mph - 0.00 in Snow Light Snow
6:39 PM 30.2 °F 23.4 °F 24.8 °F 80% 29.75 in 1.2 mi NNE 6.9 mph 16.1 mph 0.00 in Snow Light Snow
6:48 PM 28.4 °F 24.6 °F 24.8 °F 86% 29.75 in 1.0 mi Variable 3.5 mph - 0.00 in Snow Light Snow
6:53 PM 28.9 °F 21.9 °F 24.1 °F 82% 29.81 in 1.0 mi Variable 6.9 mph - 0.00 in Snow Light Snow
7:04 PM 28.4 °F 22.2 °F 24.8 °F 86% 29.76 in 1.5 mi Variable 5.8 mph - 0.00 in Snow Light Snow
7:24 PM 28.4 °F 20.4 °F 24.8 °F 86% 29.76 in 2.0 mi NNE 8.1 mph - 0.00 in Snow Light Snow
7:34 PM 28.4 °F 22.2 °F 23.0 °F 80% 29.76 in 4.0 mi Variable 5.8 mph - 0.00 in Snow Light Snow
7:53 PM 28.0 °F 20.0 °F 23.0 °F 81% 29.82 in 4.0 mi NNE 8.1 mph - 0.00 in Snow Light Snow
8:53 PM 27.0 °F - 21.9 °F 81% 29.83 in 7.0 mi Calm Calm - 0.00 in Snow Light Snow
9:34 PM 26.6 °F - 21.2 °F 80% 29.79 in 8.0 mi Calm Calm - 0.00 in Snow Light Snow
9:53 PM 27.0 °F 23.0 °F 21.0 °F 78% 29.84 in 10.0 mi Variable 3.5 mph - 0.00 in   Overcast
10:53 PM 26.1 °F - 21.0 °F 81% 29.84 in 10.0 mi Calm Calm - N/A   Overcast
11:06 PM 26.6 °F - 21.2 °F 80% 29.79 in 10.0 mi Calm Calm - N/A   Overcast
11:20 PM 26.6 °F - 19.4 °F 74% 29.79 in 10.0 mi Calm Calm - N/A   Overcast
11:53 PM 26.1 °F - 19.9 °F 78% 29.84 in 10.0 mi Calm Calm - N/A   Overcast